STARLINK-34569

Last updated on Sat Jul 19 2025 00:02:07 GMT+0000 (Coordinated Universal Time)

1 64610U 25137S 25199.58335648 -.01536161 00000+0 -16371-1 0 9996 2 64610 53.1597 355.2554 0000963 108.0890 285.7495 15.66253977 4759
UTC large
Height (km)
Speed (km/s)
/
Latitude / Longitude
Inclination (degrees)
Orbital Period (minutes)
Azimuth
Elevation
Range (km)
Doppler Factor

Next 0 passes for location: London (51.5072 / 0.1276)

Sorry there are no passes over London.